#timestamp,LO_Frequency,Hit,StdDev 
1602754155.3,286046982.9,P
1602754175.2,286046982.1,P
1602754195.0,286046980.6,P
1602754195.9,286046980.6,Y
1602754215.7,286046996.7,P
1602754235.6,286046997.0,N
1602754255.4,286046998.7,N
1602754275.3,286046996.7,N
1602754295.1,286046997.7,N
1602754296.0,286046997.7,N
1602754315.8,286046995.7,N
1602754335.7,286046995.5,N
1602754355.5,286046993.5,N
1602754375.3,286046993.3,N
1602754395.2,286046993.9,N
1602754415.0,286046992.5,N
1602754415.9,286046992.5,N
1602754435.8,286046992.8,N
1602754455.6,286046992.4,N
1602754475.4,286046994.7,N
1602754495.3,286046992.6,N
1602754515.1,286046990.7,N
1602754535.8,286046992.4,N
1602754555.7,286046992.4,N
1602754575.5,286046994.7,N
1602754595.4,286046994.5,N
1602754615.2,286046992.7,N
1602754635.0,286046993.0,N
1602754635.9,286046993.0,N
1602754655.8,286046993.2,N
1602754705.6,286046992.1,E
1602754715.6,286046996.2,N
1602754735.4,286047001.0,P
1602754755.2,286046998.6,N
1602754775.1,286046999.2,N
1602754776.0,286046999.2,N
1602754795.8,286047000.7,N
1602754815.6,286047001.2,N
1602754835.5,286046998.2,N
1602754855.3,286046999.0,N
1602754875.2,286047000.6,N
1602754895.9,286046999.9,N
1602754915.7,286047001.7,N
1602754935.6,286047001.5,N
1602754955.4,286047002.1,N
1602754975.2,286047000.1,N
1602754995.1,286047002.0,N
1602754996.0,286047002.0,N
1602755015.8,286047002.0,N
1602755035.7,286047001.5,N
1602755055.5,286047000.7,N
1602755075.3,286046998.4,N
1602755095.2,286046998.8,N
1602755115.0,286046998.1,N
1602755115.9,286046998.1,N
1602755135.7,286046999.1,N
1602755155.6,286047001.1,N
1602755175.4,286047001.2,N
1602755195.3,286046996.7,N
1602755215.1,286046996.6,N
1602755216.0,286046996.6,N
1602755235.8,286046999.6,N
1602755255.7,286046998.6,N
1602755275.5,286046999.4,N
1602755295.3,286046996.8,N
1602755315.2,286046997.4,N
1602755335.0,286046996.8,N
1602755335.9,286046996.8,N
1602755355.8,286046997.2,N
1602755375.6,286046996.6,N
1602755395.4,286046997.4,N
1602755415.3,286046996.8,N
1602755435.1,286046999.2,N
1602755455.9,286046998.4,N
1602755475.7,286047001.1,N
1602755495.5,286046998.4,N
1602755515.4,286047000.3,N
1602755535.2,286047002.2,N
1602755555.0,286047004.4,N
1602755555.9,286047004.4,N
1602755575.8,286047003.8,N
1602755595.6,286047006.4,N
1602755615.5,286047004.9,N
1602755635.3,286047005.0,N
1602755655.1,286047006.5,N
1602755675.9,286047009.0,N
1602755695.7,286047008.0,N
1602755715.5,286047008.4,N
1602755735.4,286047008.7,N
1602755755.2,286047007.9,N
1602755775.0,286047008.8,N
1602755776.0,286047008.8,N
1602755795.8,286047006.6,N
1602755815.6,286047006.9,N
1602755835.5,286047007.2,N
1602755855.3,286047007.6,N
1602755875.1,286047004.1,N
1602755895.9,286047002.4,N
1602755915.7,286047002.8,N
1602755935.5,286047000.6,N
1602755955.4,286047000.9,N
1602755975.2,286046998.7,N
1602755995.1,286046998.8,N
1602755996.0,286046998.8,N
